User: anonymous   Login
Location: Theydon Bois
(51.6750°N, 0.1050°E)
Time: 20:43:13
(UTC+01:00)
Language:

Cosmos 1703 - Orbit

View from above orbital plane
View from above orbital plane
View from above satellite
View from above satellite

Ground track
Ground track

The orbit data is extracted from the following two-line orbital elements,

1 16262U 85108A   18202.52187752  .00001150  00000-0  67411-4 0  9999
2 16262  82.4775 217.6088 0011156 351.9682   8.1367 15.10788039779181
Epoch (UTC): 21 July 2018 12:31:30
Eccentricity: 0.0011156
inclination: 82.4775°
perigee height: 526 km
apogee height: 541 km
right ascension of ascending node: 217.6088°
argument of perigee: 351.9682°
revolutions per day: 15.10788039
mean anomaly at epoch: 8.1367°
orbit number at epoch: 77918

The dashed part of the orbit path shows where the satellite is in the earth's shadow,  

DLR